Theta_e
342 340 340 341 340 340 340 340 340 342 343 342 342 343 344 344 344 344 344 345 347 348 347 347 347 347 346 345 346 345 343 342 340 337 336 334 329 326 326 328 330 330 332 333 334 335 335 334 333 332 331 330 330 330 331 332 333 334 335 336 337 337 337 337 338 338 338 339 339 340 340 340 340 340 340 339 339 339 339 339 339 340 340 340 340
343 340 340 342 343 342 340 341 341 342 343 342 342 343 343 343 343 343 344 346 348 348 347 347 348 347 345 344 345 345 344 343 342 339 336 335 335 333 331 329 327 327 329 332 333 334 335 335 335 334 334 333 333 333 333 334 335 337 338 338 338 338 338 338 338 338 338 339 339 339 339 338 339 339 339 339 339 339 339 339 339 339 339 338 338
342 342 342 343 344 343 342 342 342 342 343 342 342 342 342 342 343 344 344 346 348 348 348 347 348 348 347 346 346 345 345 344 344 342 339 337 336 335 334 334 332 331 331 332 333 333 333 334 334 333 334 335 336 337 337 337 338 338 338 337 337 337 338 338 338 337 337 338 338 338 338 338 337 337 337 336 336 336 336 336 336 335 334 332 331
342 343 344 344 343 343 343 343 342 343 343 342 342 342 341 343 344 345 345 346 348 348 347 348 348 349 348 346 346 346 347 345 344 344 342 340 339 338 336 335 335 335 334 334 334 334 334 334 334 334 333 333 334 335 335 336 336 336 336 335 336 337 338 338 338 337 338 338 338 337 337 337 335 334 332 331 330 329 328 328 327 326 325 324 323
343 343 344 344 344 344 344 343 343 343 343 343 343 343 342 344 345 345 346 347 348 348 347 348 348 348 347 347 347 347 347 346 345 345 344 342 341 340 338 337 336 336 336 337 337 337 337 336 336 336 335 334 334 334 334 335 336 335 336 337 338 339 339 338 338 338 338 337 337 337 336 336 333 330 328 326 324 322 321 320 320 319 319 319 319
344 344 345 345 345 344 343 344 345 344 343 343 344 343 343 344 345 345 346 347 348 348 348 348 347 347 347 347 347 347 346 347 346 346 346 344 342 341 341 340 338 337 337 337 337 337 337 337 337 337 336 336 337 337 337 337 338 339 339 339 339 339 339 338 338 338 337 337 336 336 336 335 332 328 325 322 321 319 318 318 317 317 317 317 317
344 345 345 345 344 344 343 343 344 344 342 341 342 344 344 344 345 346 346 346 347 348 348 348 347 347 347 347 347 347 347 347 347 348 347 346 345 344 342 341 340 340 340 338 336 336 336 337 337 338 338 338 338 338 337 337 338 339 339 339 339 339 339 338 337 336 336 335 336 335 334 332 329 326 323 321 319 318 317 317 317 316 316 316 316
345 345 345 344 343 345 344 342 344 344 342 341 342 344 346 345 346 347 346 346 346 347 347 347 347 347 347 348 347 347 348 348 347 348 348 347 347 345 343 342 341 341 342 341 339 338 336 336 336 337 338 338 337 337 337 337 337 338 338 338 338 337 337 335 333 332 331 330 330 329 329 329 326 324 321 319 318 316 316 316 316 316 316 316 316
345 346 344 344 343 344 345 344 344 345 345 344 343 344 346 346 346 347 346 345 345 347 347 347 348 347 347 348 348 348 348 348 348 348 348 348 347 345 344 344 343 342 343 342 341 341 340 339 339 338 337 337 337 337 337 337 337 337 336 335 335 335 334 332 329 326 323 321 321 322 324 325 324 321 318 317 317 316 316 316 316 316 316 317 317
345 346 345 344 343 343 343 344 345 345 346 346 345 346 346 344 343 345 345 344 344 345 346 347 346 346 345 345 346 348 349 348 348 348 348 348 347 346 346 346 346 345 344 345 345 344 343 343 343 342 341 340 338 337 338 336 336 335 334 334 334 333 332 330 326 321 318 317 317 318 321 322 320 318 317 317 317 317 317 317 318 318 318 319 319
344 345 346 343 342 341 342 344 345 346 346 346 345 346 344 342 343 344 344 344 344 344 344 345 344 345 345 343 342 347 348 348 348 348 349 349 347 348 349 348 349 348 347 347 348 347 345 344 343 343 342 340 339 339 339 337 336 335 334 334 333 332 332 328 322 319 317 316 315 317 319 319 317 317 317 317 318 318 318 319 319 319 319 319 320
344 345 346 345 343 342 342 344 347 347 347 347 347 346 344 342 344 345 344 344 344 342 342 343 344 344 345 343 341 344 345 347 348 349 350 350 348 349 350 350 350 350 349 347 346 346 345 342 339 339 338 336 337 339 339 337 336 336 335 332 331 330 330 325 320 319 317 316 315 316 317 317 317 317 318 319 319 320 319 319 319 319 320 320 319
344 345 346 345 344 344 343 344 346 347 348 347 347 346 342 341 343 344 343 342 342 341 342 343 343 343 344 343 342 342 343 345 348 348 349 350 349 349 351 350 350 349 346 344 343 343 345 343 336 336 335 332 333 335 336 336 337 337 335 330 327 326 325 322 319 318 317 316 316 316 317 317 318 318 319 320 319 320 320 319 319 319 319 320 320
344 344 345 345 345 345 345 345 345 346 347 344 344 344 340 339 341 341 341 340 340 341 342 343 342 341 343 344 343 343 344 344 347 347 347 348 349 349 349 349 349 347 344 343 343 344 346 343 335 331 329 326 326 327 330 334 335 334 330 325 323 322 321 319 319 319 317 317 317 317 317 318 318 319 319 319 320 320 320 320 320 319 319 320 320
345 344 345 346 346 346 345 346 345 344 345 343 344 344 339 339 340 341 341 341 340 340 342 342 340 340 343 344 344 344 343 343 345 347 347 347 347 346 347 347 347 345 344 345 343 342 343 340 334 330 328 323 320 322 324 326 327 326 324 323 321 320 319 319 319 318 318 318 318 318 318 319 319 319 319 319 320 319 320 320 320 320 320 320 320
346 345 345 346 345 346 345 344 343 343 345 345 345 345 339 339 342 343 343 343 342 340 340 341 341 342 343 343 344 345 344 343 345 345 346 346 345 344 345 347 347 343 343 345 341 339 340 338 335 336 337 330 322 322 323 322 322 321 321 321 320 319 319 320 319 319 319 319 319 319 319 319 319 319 320 319 320 319 320 320 320 320 320 320 320
344 344 345 345 345 346 346 345 345 345 346 346 345 344 339 339 343 343 342 342 342 340 339 342 344 343 344 344 344 345 345 344 344 344 345 346 346 343 343 344 343 341 341 343 342 340 340 339 338 341 344 337 330 327 324 323 323 322 322 321 321 321 321 321 321 320 321 321 321 321 321 320 320 320 320 320 320 320 320 320 320 320 320 320 320
344 344 344 344 345 348 349 347 347 347 347 347 346 345 340 339 341 341 342 342 341 339 339 342 343 342 344 346 345 345 345 346 345 344 345 345 345 342 340 341 343 342 341 341 343 343 343 341 339 342 343 341 339 335 327 324 324 324 324 323 323 323 323 323 322 322 322 322 323 323 322 322 322 322 322 322 322 321 321 321 320 321 321 320 321
345 347 345 344 345 346 349 348 347 346 347 347 346 345 341 338 341 343 345 345 341 338 339 341 342 342 344 345 346 346 345 346 345 345 344 343 343 342 342 341 342 344 343 342 344 344 344 343 340 340 342 343 343 339 331 327 326 325 325 324 324 324 324 323 323 323 324 324 323 323 323 323 323 324 323 323 323 323 323 323 323 322 322 322 321
345 349 349 348 345 344 346 347 347 347 347 347 346 345 341 339 344 346 345 343 341 338 337 339 342 342 344 346 346 345 346 347 346 346 344 342 342 343 343 343 342 343 343 343 345 345 344 344 342 342 343 344 343 338 333 331 329 327 327 326 326 325 325 325 325 325 325 325 325 325 325 325 324 324 324 324 324 324 324 324 324 323 324 323 323
343 348 351 349 346 345 344 344 347 348 347 346 345 346 343 340 342 345 344 342 340 340 339 340 343 342 343 346 345 343 344 347 346 347 346 344 344 344 343 343 343 344 342 342 343 343 343 342 342 343 343 345 343 336 333 332 329 329 328 328 328 327 327 328 328 327 327 327 327 327 327 327 327 327 327 326 326 325 325 325 324 324 324 324 324
345 347 350 348 345 345 344 342 344 346 347 347 347 346 345 342 338 339 343 342 340 343 343 342 343 343 344 345 343 341 344 346 347 348 347 347 345 345 345 344 344 343 342 342 343 342 341 341 343 343 343 345 343 336 331 329 328 328 328 328 328 327 327 327 327 327 327 327 327 327 327 327 327 327 327 328 328 328 327 327 326 326 325 324 324
346 347 348 347 345 344 344 343 342 344 346 348 350 348 346 346 340 333 336 340 342 344 344 344 346 344 342 343 342 344 347 347 347 346 346 347 346 346 346 345 344 342 341 342 343 341 340 341 343 343 343 344 339 333 330 330 329 329 328 327 328 327 327 326 326 326 326 326 326 326 326 326 326 326 327 327 328 328 328 329 329 329 329 329 328
345 346 347 346 346 345 344 345 343 343 346 348 350 350 348 347 344 336 330 334 343 346 344 345 345 340 339 340 343 346 348 348 347 345 344 345 346 347 345 343 343 344 342 340 339 341 341 341 343 343 341 338 335 334 335 337 337 335 332 329 328 328 329 329 328 329 329 329 329 329 328 328 328 328 328 329 329 329 329 329 329 329 330 330 330
341 343 346 345 345 345 343 344 343 342 346 348 348 350 351 349 346 342 335 331 338 342 344 345 340 339 343 345 346 346 345 345 346 344 343 343 345 347 343 340 344 345 343 340 339 341 342 341 342 342 339 335 336 337 339 342 343 340 336 332 330 331 332 332 333 334 334 334 334 334 333 333 333 333 333 333 333 333 333 333 332 332 332 331 331
332 336 344 345 344 345 344 343 344 342 344 347 346 348 352 351 347 345 341 335 332 332 338 342 337 341 349 349 349 348 345 344 343 343 344 343 343 343 340 339 344 346 344 342 341 343 343 341 341 341 339 339 339 339 342 345 345 341 339 337 336 337 337 337 337 337 336 336 336 336 336 336 336 337 336 337 337 337 337 337 336 336 335 334 334
328 329 337 341 342 344 344 342 344 343 341 343 345 345 350 352 348 345 344 340 336 332 331 334 336 343 349 349 349 347 345 345 344 342 343 344 344 342 338 337 342 346 346 342 341 343 344 343 344 343 342 343 342 342 345 346 344 342 344 343 343 343 342 342 341 340 339 340 340 340 339 337 337 338 340 341 342 344 344 345 345 344 343 341 340
330 329 330 334 337 342 344 343 342 342 340 340 342 342 346 351 347 345 345 342 341 338 331 329 336 342 346 349 349 347 345 346 346 344 344 344 345 341 334 332 336 341 342 339 339 344 346 345 344 344 343 343 342 345 348 346 345 345 345 346 346 345 344 344 343 344 343 343 344 343 340 338 338 342 345 349 351 352 353 354 354 352 352 351 349
331 331 330 331 333 338 343 343 341 342 341 341 341 340 342 346 345 344 345 343 343 342 336 333 333 339 344 346 348 349 346 345 346 347 345 344 341 336 330 329 333 335 334 332 335 341 346 345 344 344 345 344 346 348 347 343 344 348 348 347 346 345 346 347 347 346 346 347 347 347 344 343 345 348 350 353 354 355 355 354 354 355 355 355 354
330 332 332 332 332 334 338 342 342 342 341 341 341 341 340 341 341 341 344 345 344 343 341 337 335 341 345 344 345 348 347 345 346 347 345 341 336 331 330 332 334 335 333 333 332 333 337 340 341 342 343 343 344 342 339 338 343 348 348 347 347 347 347 347 346 345 347 349 350 349 349 349 352 354 354 355 355 356 354 351 350 351 352 352 351
331 332 332 333 334 333 334 338 341 342 342 340 340 340 341 340 339 339 341 344 344 343 342 340 338 341 346 346 344 345 346 343 342 342 339 335 333 332 333 335 335 335 334 334 332 330 331 332 333 334 334 334 333 333 332 335 340 342 342 344 346 347 345 344 344 346 348 352 352 352 353 354 355 356 356 357 357 357 356 352 349 349 350 350 350
331 332 333 334 335 336 334 336 340 342 342 341 339 339 340 340 340 339 339 341 342 341 340 341 341 340 345 349 349 349 347 341 339 341 338 335 335 336 338 338 338 337 337 337 336 333 331 332 330 329 329 329 329 330 331 332 333 336 338 342 343 343 342 344 347 350 352 354 354 354 356 356 356 356 357 357 356 355 353 351 350 349 349 349 350
332 333 333 333 335 337 336 335 337 341 342 341 340 339 338 339 340 340 340 340 340 339 339 340 341 341 344 349 351 352 350 343 339 342 342 338 336 337 344 348 349 347 346 344 342 335 332 332 330 328 329 330 329 330 332 331 331 333 336 339 341 342 344 346 349 352 355 355 355 355 356 356 357 356 355 351 349 348 347 347 346 344 344 343 344
333 334 334 333 334 337 339 338 336 338 341 341 341 340 338 338 339 340 340 339 338 338 338 338 339 341 343 346 347 348 348 342 337 338 339 339 338 341 349 354 355 354 352 350 347 341 334 332 330 329 330 331 330 330 333 332 331 333 335 338 342 344 346 348 351 354 356 354 353 354 355 355 352 348 344 340 338 339 341 340 339 339 341 342 342
333 335 334 334 333 335 338 339 337 338 339 340 341 340 340 339 339 339 340 340 338 337 336 336 337 338 340 342 342 342 341 339 337 337 337 338 339 342 348 354 355 355 354 353 350 347 341 336 333 331 331 332 330 330 332 331 333 335 339 342 345 348 350 352 352 353 354 353 354 355 353 347 338 334 332 331 333 335 335 335 337 341 344 345 345
334 335 336 335 334 335 336 337 337 338 338 338 339 339 339 339 339 339 338 339 338 337 337 336 335 335 336 337 337 336 335 335 335 336 335 336 337 340 345 350 353 355 355 354 353 349 346 339 333 330 331 330 329 330 332 333 335 340 345 349 351 352 353 353 352 351 353 354 355 354 347 336 330 329 328 328 330 331 330 333 339 343 345 346 345
335 337 337 337 337 336 336 335 336 337 338 337 338 338 338 338 339 339 339 338 338 338 337 337 337 337 337 338 338 336 335 335 335 335 334 335 336 337 338 340 344 347 348 349 348 344 340 336 332 331 331 330 329 329 332 337 339 342 348 352 353 354 353 351 351 352 354 355 354 350 340 330 328 329 327 326 327 326 327 333 340 344 344 344 343
338 339 339 339 338 338 336 335 335 336 337 337 337 337 337 338 339 339 339 340 339 338 337 337 337 338 339 339 339 338 338 337 336 336 336 336 336 337 337 337 337 338 339 340 338 336 335 335 335 333 330 331 331 329 333 340 342 346 352 352 351 351 350 349 349 351 354 354 351 344 334 328 327 328 326 325 325 325 327 334 340 341 340 339 337
341 341 340 339 338 337 337 336 335 335 336 337 337 337 337 338 337 338 339 339 340 340 339 338 337 337 338 338 337 337 337 336 336 336 336 336 337 337 338 337 336 337 337 337 336 337 338 337 336 332 330 331 332 331 333 338 341 348 355 352 348 348 349 349 348 350 354 353 347 338 331 328 327 327 325 324 325 326 327 331 334 334 334 332 331
344 343 340 338 339 338 337 338 336 335 335 336 336 336 337 337 336 337 337 338 339 339 340 339 338 337 336 336 336 336 335 334 334 334 335 336 338 338 337 337 337 338 337 336 337 337 337 335 332 331 331 331 331 331 332 335 341 348 351 348 346 346 347 348 348 352 354 349 341 335 330 328 327 326 325 324 324 325 326 328 329 329 330 330 331
345 344 342 340 339 338 338 338 338 337 336 336 336 335 335 336 335 335 335 335 337 337 338 338 338 336 335 334 334 334 333 332 330 331 333 335 338 338 337 337 337 337 337 337 336 335 333 332 331 331 331 330 330 330 331 335 343 346 344 344 345 347 349 350 352 355 352 342 336 332 329 328 327 324 324 324 324 324 325 326 327 327 329 329 330
344 346 346 345 342 340 339 339 339 339 337 335 336 336 336 335 334 334 334 334 334 335 336 337 336 336 335 334 332 332 332 331 329 331 334 339 342 342 340 339 338 337 336 335 333 332 332 332 332 331 331 329 329 330 331 333 338 340 342 344 347 350 352 353 356 355 346 338 335 330 326 329 327 324 324 324 323 323 323 325 326 328 329 329 330
345 345 348 349 348 344 342 340 339 339 337 336 335 335 336 336 335 334 334 333 334 334 334 334 334 335 334 333 333 333 332 331 330 331 336 343 346 346 345 343 340 339 339 338 337 336 336 336 333 331 330 329 329 330 330 333 336 340 344 348 351 353 354 356 358 353 342 338 335 328 326 328 326 324 324 324 323 322 322 325 326 327 328 330 330
348 347 348 351 351 348 346 344 340 339 336 334 334 335 335 335 335 335 334 333 334 334 334 334 334 333 334 334 333 333 333 334 335 337 342 346 348 346 345 342 340 341 341 340 340 338 337 337 335 331 329 329 330 330 333 338 342 345 348 351 353 355 356 357 357 349 339 337 333 327 327 328 325 324 325 323 322 322 323 325 326 327 329 329 331
352 350 349 351 352 352 350 348 344 341 338 334 334 334 335 335 335 335 335 335 334 334 335 335 335 335 334 335 335 335 334 334 338 342 345 345 345 345 344 343 344 343 342 340 338 337 337 337 336 331 328 331 331 332 336 342 346 348 350 352 354 355 357 358 354 344 337 336 332 328 330 329 325 323 324 322 321 322 323 324 325 327 329 329 330
355 354 352 351 353 354 353 351 349 345 341 337 335 335 334 335 335 335 336 336 336 336 336 335 335 335 335 335 335 335 335 336 338 343 346 346 345 345 345 345 346 344 342 339 336 335 335 335 333 329 329 332 333 333 337 343 347 351 353 354 355 356 357 358 351 342 336 334 331 330 333 330 325 323 323 321 321 322 323 324 325 327 327 327 329
356 355 354 352 352 353 354 354 352 350 346 341 339 338 337 336 336 337 338 340 339 339 338 337 336 335 335 335 336 336 337 338 339 343 347 348 347 347 347 347 345 344 341 336 333 333 333 333 331 330 329 330 333 336 339 344 348 352 355 356 355 357 358 355 349 342 336 333 331 330 331 329 326 324 322 320 321 321 322 323 324 326 326 327 329
356 357 356 354 353 353 353 354 354 352 350 346 344 343 343 342 342 342 343 344 344 343 341 340 338 337 336 337 338 338 337 336 336 338 342 344 345 346 346 346 346 344 339 334 332 332 333 332 330 330 328 329 334 340 344 346 350 354 356 356 356 357 356 352 347 341 335 333 331 329 327 327 325 323 321 321 321 321 321 323 324 325 327 328 328
357 357 357 356 354 353 353 354 354 353 352 349 348 347 346 348 349 349 348 348 347 346 344 343 342 341 340 340 341 340 338 335 333 334 339 343 343 342 342 342 343 343 337 333 333 333 333 332 331 330 329 331 337 344 348 350 352 355 357 356 355 355 353 348 343 339 335 332 330 327 325 325 323 321 321 321 321 321 321 323 324 325 327 327 327
357 357 356 356 356 354 352 353 353 355 354 352 350 350 350 352 353 353 354 353 352 350 348 348 347 346 344 344 344 344 340 335 334 335 340 345 346 344 342 341 342 341 336 332 333 333 331 332 331 330 330 333 339 346 350 351 354 356 357 355 352 350 347 343 341 339 334 331 329 326 324 324 322 320 321 321 321 321 321 322 323 325 326 326 327
356 357 356 356 356 355 354 353 352 354 355 355 354 353 355 355 355 356 357 358 358 356 353 351 350 348 347 344 344 344 341 337 337 338 340 345 346 345 346 348 348 343 336 334 335 335 334 334 333 332 333 336 344 349 351 352 353 355 355 351 347 345 343 341 340 338 333 332 329 325 324 323 321 320 320 321 322 322 321 321 322 324 325 326 327
Wind_Speed
9 9 9 9 10 11 11 12 12 11 11 11 11 11 10 11 13 14 14 13 12 11 11 10 8 5 5 6 5 5 5 6 6 6 7 7 8 9 8 6 5 5 5 5 5 5 5 5 5 5 5 5 5 4 4 5 5 4 4 3 3 2 1 1 1 2 3 3 4 4 5 5 5 5 5 6 6 6 6 6 6 7 7 7 7
8 8 9 8 9 10 10 10 10 11 11 11 11 11 11 11 12 13 14 14 13 12 12 11 10 6 5 6 6 4 5 6 6 6 7 7 7 8 8 8 7 6 6 6 5 5 5 5 5 5 5 5 4 4 4 4 4 3 3 2 1 1 1 2 2 3 4 4 5 5 5 5 5 5 5 5 6 6 6 6 6 6 7 7 7
9 9 9 8 9 10 10 10 10 10 10 11 12 12 12 12 11 12 14 14 13 12 11 11 10 7 5 5 6 5 5 6 6 6 6 5 5 6 7 7 7 7 7 6 6 5 5 5 5 4 4 4 3 3 3 3 3 2 1 1 0 1 1 2 3 3 4 4 5 5 5 5 5 5 5 5 5 5 5 6 6 6 6 6 6
9 9 9 9 10 10 10 10 10 10 10 11 11 11 13 12 12 13 14 14 12 11 11 11 10 8 5 4 5 5 4 5 6 6 5 5 4 5 5 6 6 6 6 6 6 5 5 5 4 4 4 3 3 2 2 2 2 1 1 1 1 2 2 2 2 3 3 3 4 4 4 4 5 5 5 5 5 5 5 6 6 6 6 6 6
9 10 9 9 10 10 10 10 10 10 10 10 11 11 13 14 14 14 14 13 12 11 11 12 11 8 6 4 4 4 2 2 4 5 4 4 4 4 4 4 5 5 6 6 5 5 4 4 4 4 3 3 3 2 1 1 1 1 1 1 2 2 2 2 2 2 3 3 3 3 3 4 4 4 4 4 5 5 6 6 6 6 6 6 6
10 10 9 9 9 9 10 11 10 10 10 11 11 12 13 14 15 14 14 13 13 13 12 12 11 9 8 5 4 3 1 0 2 3 3 4 3 3 4 4 4 4 4 5 4 4 3 3 3 3 3 2 2 1 1 1 1 1 1 1 2 2 2 2 2 3 3 3 2 3 3 3 3 3 4 4 5 5 6 6 6 6 6 6 6
10 10 10 10 9 10 11 11 12 12 12 13 14 14 15 15 15 14 13 13 14 14 12 11 10 9 8 7 5 3 1 1 1 2 2 2 2 2 3 3 4 3 4 4 4 3 3 2 2 2 2 1 1 1 0 0 1 1 1 2 2 2 2 3 3 3 3 3 3 3 3 3 3 3 4 4 5 5 5 5 5 5 5 5 5
10 10 10 11 10 11 12 12 13 13 13 14 14 15 15 15 14 13 12 13 14 13 12 11 10 9 8 7 5 4 2 1 1 1 1 1 1 2 3 3 3 3 3 3 3 3 3 2 1 1 1 1 1 0 0 0 1 1 1 2 2 2 3 3 3 4 5 5 4 4 3 3 3 4 4 4 5 5 5 5 5 4 4 4 4
10 11 10 10 9 10 12 13 13 13 14 13 14 15 15 15 14 14 13 12 12 11 10 9 9 10 8 7 7 5 3 2 2 2 2 1 0 2 3 3 2 3 3 3 2 2 2 2 1 1 1 1 1 1 1 1 1 1 2 2 2 2 3 3 4 5 6 6 5 4 4 3 3 3 3 4 4 4 4 4 4 4 3 3 3
11 11 11 11 9 10 11 13 13 13 13 13 14 15 15 16 15 15 14 12 11 9 8 9 10 11 8 6 7 6 4 3 4 3 2 1 1 2 3 3 2 2 2 1 1 1 1 2 1 1 1 1 1 0 1 1 2 2 2 2 2 2 2 4 5 6 6 6 5 4 3 3 2 2 2 3 3 3 3 3 3 3 3 3 3
10 10 11 11 10 10 11 11 11 11 12 13 14 15 16 16 13 12 11 9 9 7 7 9 10 10 8 3 3 5 4 4 4 2 2 1 2 2 2 2 1 1 1 1 0 0 1 3 2 1 1 1 1 1 1 1 2 2 2 2 2 3 3 5 5 6 5 5 4 3 2 2 2 2 2 2 2 2 2 2 3 3 3 3 3
9 9 11 11 10 10 11 11 10 10 11 12 14 16 17 15 12 8 6 7 9 7 7 9 8 8 9 4 0 3 4 5 5 2 2 1 1 2 2 1 1 1 2 2 1 2 3 5 2 2 1 2 1 1 1 2 2 2 2 3 4 4 4 5 5 5 5 4 3 2 2 2 2 2 2 2 2 2 3 3 3 3 3 4 4
8 9 10 9 9 8 9 10 9 8 10 12 14 15 16 15 12 9 8 10 10 8 7 7 7 9 10 4 1 2 3 4 7 3 1 2 2 3 3 2 1 2 2 3 2 3 4 7 4 2 3 4 2 2 2 3 2 2 3 4 5 4 4 4 4 4 4 3 3 3 2 2 2 2 3 3 3 4 4 4 4 4 4 4 4
7 8 9 8 8 7 8 9 8 8 9 11 12 12 14 15 14 13 14 13 10 9 8 9 10 9 9 5 1 4 3 3 6 5 3 2 2 3 2 2 1 3 4 4 4 3 3 6 7 6 6 6 4 3 3 2 2 3 4 5 5 4 4 4 4 4 4 3 3 3 3 3 4 4 4 4 5 5 5 5 5 5 5 5 6
8 7 7 8 7 6 6 8 8 9 9 9 9 10 12 16 16 14 13 11 9 10 10 10 11 10 10 8 5 6 5 5 7 8 7 2 2 1 0 1 1 3 4 3 3 3 3 5 8 8 8 8 6 5 4 3 3 3 4 5 4 4 4 4 4 4 4 4 4 4 4 4 5 5 5 5 6 6 6 6 6 6 6 6 7
8 6 6 6 6 6 5 6 6 7 8 7 9 10 13 17 16 12 11 9 10 13 11 9 11 11 10 9 6 6 5 5 7 8 10 8 1 2 2 2 2 2 2 1 3 5 4 5 7 9 11 11 9 8 6 5 4 5 5 5 5 5 5 5 6 6 6 6 6 6 5 6 6 6 6 7 7 7 7 8 8 8 8 8 8
9 7 7 7 6 7 5 5 5 4 5 7 9 11 14 17 16 14 13 9 11 14 12 9 11 12 10 7 6 6 4 5 6 7 7 8 6 3 2 3 3 2 0 2 3 6 6 5 4 8 11 11 10 9 8 6 6 6 6 6 6 6 6 6 6 6 6 7 7 7 7 7 7 7 8 8 8 8 8 9 9 9 9 9 9
11 10 9 9 7 7 6 5 6 6 6 7 9 11 14 17 18 16 12 9 12 15 13 11 12 12 8 5 5 5 5 6 7 7 5 6 9 7 2 2 2 2 2 2 1 4 8 8 5 6 10 10 10 10 9 6 6 6 5 5 6 6 6 6 6 7 7 7 7 7 8 8 9 9 9 10 10 10 10 10 10 11 11 11 11
11 10 9 9 9 8 8 7 7 8 8 8 9 11 13 16 18 15 11 10 12 12 12 12 13 12 8 4 3 4 7 7 7 8 6 6 9 8 4 1 1 3 4 2 1 2 6 11 8 7 9 9 10 11 10 8 7 6 5 5 5 5 5 6 6 7 7 7 8 8 9 9 10 11 11 11 12 12 12 12 13 13 13 13 13
11 10 10 9 9 10 9 9 9 8 8 8 9 10 13 17 18 15 14 14 12 9 9 12 14 13 9 6 4 4 6 8 8 7 6 7 8 8 7 5 3 3 4 4 3 2 5 10 10 9 10 9 10 11 11 10 8 6 5 5 5 5 5 6 6 7 8 8 9 9 10 11 11 12 12 13 13 14 14 14 15 15 15 15 15
12 11 11 10 10 10 9 9 10 10 9 8 8 8 11 15 17 16 17 16 13 10 10 11 13 12 8 8 7 6 7 8 8 8 6 7 7 5 6 7 6 3 4 4 2 1 4 8 9 10 9 9 11 12 11 10 9 7 6 6 6 6 7 7 8 8 9 10 10 11 11 12 13 13 13 14 15 15 16 16 16 17 17 17 18
13 13 12 11 10 10 9 9 9 10 10 9 8 7 9 12 14 15 18 17 14 13 11 9 11 11 9 9 8 6 9 9 9 8 6 6 6 4 4 5 6 3 2 4 4 4 5 6 7 9 8 8 11 12 11 11 11 9 8 7 7 8 8 9 10 10 11 12 13 13 14 14 15 15 16 16 17 17 18 18 18 19 19 19 20
12 13 13 12 11 10 10 10 9 10 11 10 8 6 7 10 11 13 17 19 16 15 14 10 9 9 10 9 7 8 10 9 7 6 6 7 7 3 2 4 5 3 3 3 5 6 6 4 5 8 8 8 10 11 12 13 14 13 12 10 9 10 10 11 12 13 14 14 15 16 16 17 18 18 18 19 20 20 21 21 21 22 22 22 22
13 13 13 12 11 11 11 12 11 10 11 10 8 7 7 9 10 11 14 19 19 17 16 13 8 8 9 9 8 8 9 7 5 4 6 8 6 2 1 4 5 3 2 2 3 3 3 3 4 6 8 8 9 11 13 15 16 17 17 15 13 12 13 13 14 14 15 15 16 17 18 19 20 21 21 22 22 23 24 24 24 25 25 25 25
15 14 14 14 12 12 12 12 12 12 13 11 10 10 9 9 10 10 11 15 19 18 18 16 10 9 11 10 7 6 6 5 4 4 5 5 2 1 2 5 5 4 3 3 2 2 3 3 4 6 7 8 9 11 13 15 18 19 18 16 15 15 15 15 15 15 15 16 17 18 19 20 21 22 23 23 24 25 26 26 27 27 28 28 29
17 15 14 14 13 13 13 12 13 14 14 14 12 11 11 9 10 10 11 12 14 17 18 17 14 12 11 8 6 5 5 3 3 2 2 2 3 3 2 5 6 5 4 3 2 1 1 2 4 6 8 9 10 11 13 16 19 18 17 16 16 16 16 16 16 17 17 18 18 19 19 20 21 22 23 24 25 26 27 28 29 30 30 31 31
17 15 15 14 13 13 14 13 13 14 14 15 15 14 12 11 11 12 11 11 11 12 14 16 16 15 12 10 8 7 6 4 4 4 4 5 5 5 2 5 8 6 5 5 3 1 2 4 6 8 10 10 11 12 14 17 18 17 17 17 18 18 19 19 19 19 19 20 20 21 21 20 20 20 21 21 22 24 25 26 28 29 31 32 33
17 16 16 16 14 14 15 15 14 14 14 15 16 15 13 12 12 13 13 12 10 9 11 15 16 13 13 14 12 10 10 8 7 8 8 7 7 6 4 4 7 7 6 6 6 5 4 5 5 6 8 10 11 12 14 16 17 17 17 18 20 21 21 22 21 21 22 22 22 22 21 20 19 19 20 20 21 23 25 26 26 27 28 30 31
18 17 16 17 16 15 16 16 16 15 15 15 15 14 14 14 12 12 13 12 11 8 8 11 13 11 11 15 16 13 13 13 11 11 11 10 9 7 5 5 5 5 4 4 6 7 6 6 5 3 4 6 9 12 15 16 16 16 18 20 21 22 22 22 22 22 23 23 23 22 20 19 20 21 22 23 24 26 28 29 29 29 30 30 30
19 18 18 18 18 17 17 17 17 16 17 16 16 15 15 15 13 12 12 12 12 11 9 9 11 11 10 13 16 14 13 15 15 13 11 11 10 8 6 6 4 4 4 3 4 5 6 7 7 6 6 7 11 14 15 15 15 17 19 20 21 21 21 21 21 21 21 21 21 20 20 21 22 24 25 26 27 28 29 30 30 30 30 30 30
21 20 20 20 21 20 19 19 18 17 17 18 17 17 16 16 15 14 14 13 13 13 12 10 11 12 11 12 13 12 11 13 14 13 12 10 9 7 7 7 6 6 6 5 5 4 4 6 6 6 8 10 11 12 13 13 14 16 17 18 19 19 19 19 18 17 17 18 19 20 21 23 25 27 29 29 30 30 31 31 30 28 27 27 27
23 22 22 21 22 22 21 20 19 18 18 18 18 18 17 17 17 16 16 15 14 14 14 13 12 12 12 12 13 11 10 12 13 12 11 9 8 7 6 6 7 6 6 8 9 7 5 6 6 6 8 10 10 11 13 13 13 14 16 17 17 16 15 15 14 15 16 17 20 23 25 27 29 30 31 31 31 30 30 29 28 28 27 27 27
25 24 24 24 23 23 23 23 21 20 19 19 19 19 19 18 18 17 17 17 16 15 14 15 14 13 13 13 14 13 12 12 11 10 10 9 8 7 5 5 7 7 8 9 12 12 9 8 10 11 11 13 14 14 14 15 14 14 14 13 12 12 14 15 16 17 18 21 24 27 29 30 31 31 31 30 28 27 26 27 27 27 26 25 24
28 26 26 26 25 23 24 24 23 22 21 20 20 20 20 19 19 19 18 18 18 17 16 16 16 15 15 14 15 16 15 13 11 11 11 11 11 9 7 7 8 9 10 11 13 16 16 14 14 15 14 15 16 15 15 15 15 15 14 13 12 14 17 18 19 19 20 23 27 29 30 30 29 28 26 24 23 23 24 24 25 24 23 23 22
29 28 28 28 27 25 24 25 25 24 23 22 21 21 21 21 21 20 20 19 19 19 19 18 17 17 16 16 15 16 15 14 12 12 11 12 12 11 10 10 11 11 11 12 14 16 19 19 18 17 16 16 16 16 15 15 17 17 16 15 15 17 19 19 21 21 22 25 28 29 29 27 24 22 21 20 21 22 23 23 23 24 23 23 22
31 30 29 29 29 27 26 26 26 26 25 24 23 23 22 21 21 21 21 20 20 20 19 19 18 18 18 17 17 15 14 14 14 13 13 12 12 12 12 13 14 14 12 13 15 17 20 21 19 16 16 16 17 16 16 17 18 18 17 17 17 18 19 20 22 23 24 27 28 28 26 23 21 19 19 21 22 22 22 23 23 23 23 22 23
33 31 31 31 31 30 28 27 27 27 26 25 25 24 23 22 22 22 21 21 21 20 19 19 19 19 19 18 18 17 16 15 15 15 14 13 13 13 13 13 14 15 15 16 17 18 20 20 18 16 16 17 18 17 17 18 19 18 17 16 17 19 20 22 23 24 26 27 26 25 24 21 19 19 21 22 21 22 23 23 23 24 24 26 27
35 33 32 32 33 31 29 28 28 28 28 26 25 25 24 23 22 22 22 22 22 21 20 19 19 19 19 19 18 17 17 17 17 17 16 15 14 14 14 14 14 15 16 16 17 17 18 18 18 18 18 18 19 19 18 18 18 18 17 18 19 21 23 25 25 26 27 26 24 23 23 20 19 21 22 22 22 24 25 25 25 26 28 30 31
37 36 34 34 33 32 30 29 29 29 29 28 27 26 25 24 23 23 23 23 23 23 22 20 19 19 19 19 19 18 18 18 17 17 17 16 16 16 15 15 14 15 16 15 15 16 17 18 19 20 20 19 20 20 19 18 18 17 17 20 23 24 25 26 26 26 26 24 23 23 21 20 20 22 24 24 26 28 28 28 27 28 29 30 31
39 38 36 35 34 32 31 30 29 30 30 30 30 28 27 26 24 24 24 24 24 24 23 22 20 20 19 19 19 19 19 18 17 17 17 17 18 18 17 16 16 16 16 16 16 16 17 19 19 19 20 21 21 21 21 20 19 18 18 22 25 26 26 25 24 25 25 24 25 24 21 21 21 22 25 27 29 31 30 28 27 28 30 30 29
41 40 38 36 35 33 32 31 30 30 31 32 31 30 29 28 27 26 25 25 25 25 25 23 22 21 20 19 19 19 18 18 18 17 17 17 17 18 17 17 17 17 17 17 17 17 18 19 20 19 21 22 22 22 22 21 20 20 22 24 26 25 25 23 22 23 24 24 25 24 22 22 22 23 27 29 31 32 29 25 26 28 30 31 31
41 42 40 38 37 35 33 33 32 32 32 33 32 31 30 29 28 27 26 26 26 26 26 26 25 24 22 21 20 19 18 18 18 17 16 15 15 16 15 16 17 17 18 18 19 19 19 20 20 20 22 23 22 22 23 22 21 22 23 24 24 22 22 23 23 22 21 22 24 24 23 21 23 26 28 31 32 30 26 23 24 27 30 32 33
40 41 41 40 39 37 34 33 33 33 33 33 33 32 31 30 29 29 28 27 26 27 27 27 26 26 25 24 23 22 21 21 19 17 16 16 16 16 16 17 17 18 19 20 20 21 21 22 21 21 22 24 23 22 22 22 21 21 21 21 21 21 22 25 26 24 21 19 22 24 23 21 23 27 29 31 30 27 24 22 23 26 29 32 31
39 40 42 42 40 38 36 35 34 34 33 32 32 32 32 31 30 30 29 28 28 28 27 27 26 26 25 25 24 23 23 22 21 20 20 20 20 20 19 19 18 18 19 20 21 21 21 22 22 22 22 23 23 21 19 18 18 19 19 18 18 20 22 24 26 24 20 19 22 24 22 21 24 27 28 30 28 25 22 22 25 27 30 31 30
40 39 41 42 41 39 37 36 35 34 33 31 31 31 31 31 30 31 30 30 29 29 28 28 27 26 26 25 25 24 23 21 21 22 22 23 22 21 21 20 19 19 20 20 21 21 21 22 22 23 22 20 21 20 16 16 17 18 17 17 18 20 22 24 24 22 20 20 22 23 21 22 24 26 28 28 26 24 23 24 26 28 30 31 31
42 40 40 41 41 40 39 37 36 35 33 31 30 31 31 30 30 30 31 31 31 30 30 29 28 27 26 26 26 25 24 23 23 23 23 23 23 22 23 22 22 22 22 22 22 22 22 22 22 23 21 18 19 18 16 15 17 17 17 18 19 21 23 23 22 21 21 22 23 22 20 22 24 26 27 26 24 24 24 25 26 27 29 31 33
44 43 41 41 42 42 40 39 37 36 35 32 30 30 30 30 30 30 31 31 31 31 31 30 30 29 27 27 27 26 26 25 25 26 26 26 25 25 24 24 25 25 25 24 23 23 23 23 22 22 21 19 18 17 16 16 16 16 17 18 19 21 23 22 21 20 20 21 22 21 21 22 25 25 25 25 24 24 25 26 26 27 29 32 33
45 44 43 42 42 43 42 41 39 38 37 34 31 30 29 28 29 30 31 31 31 31 31 31 31 30 29 29 28 27 27 26 25 25 27 29 29 29 28 27 27 28 28 26 25 24 24 24 23 22 21 20 18 17 16 16 16 16 17 18 19 20 21 22 21 19 18 20 22 21 22 23 24 24 24 23 23 25 26 26 27 29 30 31 33
45 45 45 44 42 43 43 43 42 40 39 36 33 31 29 28 28 29 29 30 30 31 31 31 31 31 31 30 29 28 27 26 25 24 24 26 29 30 31 30 30 30 30 27 26 26 25 24 23 22 22 20 19 17 16 16 17 17 17 18 18 18 19 21 20 19 18 20 21 21 22 23 23 24 23 22 22 24 26 27 29 31 31 31 32
46 46 46 45 44 43 43 44 44 42 40 38 36 33 30 28 28 28 28 28 29 29 30 31 32 32 32 31 29 29 29 27 26 25 24 25 26 28 29 29 30 31 30 27 26 26 26 25 24 23 23 21 19 18 17 17 17 16 16 18 17 16 18 18 18 19 20 20 21 21 21 21 21 22 24 24 23 24 26 27 29 32 32 33 33
47 46 45 45 45 44 43 43 44 43 41 38 36 34 32 30 29 29 28 28 28 28 28 29 30 31 33 33 32 32 31 30 28 28 27 27 28 29 28 29 30 31 29 27 27 28 27 27 26 25 23 21 19 18 18 18 17 15 15 16 15 15 16 16 17 19 20 20 21 21 19 19 19 21 23 25 26 26 26 27 29 32 32 33 34
Wind_Direction
135 141 141 136 135 136 135 138 143 143 147 146 143 144 142 143 140 136 133 131 133 135 127 121 129 141 134 127 123 110 108 106 99 97 95 95 98 105 116 128 138 139 136 132 125 121 119 120 121 123 126 127 130 132 134 134 132 131 126 125 120 107 88 51 22 7 2 3 5 5 8 5 3 0 355 351 347 344 340 342 347 346 345 346 349
147 149 150 145 140 140 137 140 146 147 150 149 148 149 146 148 149 146 141 139 139 137 129 124 125 132 126 119 122 117 105 102 99 98 96 96 96 98 107 113 121 128 132 131 124 123 120 123 125 125 130 131 133 131 129 132 130 132 129 130 121 95 44 17 4 0 2 3 4 5 3 359 357 354 349 347 343 340 336 336 340 341 340 343 348
143 142 147 147 141 140 139 143 150 152 150 148 150 152 147 144 151 156 152 149 143 138 136 131 132 141 129 103 111 117 101 95 99 101 95 96 96 94 103 107 112 118 123 128 126 126 124 125 128 127 130 130 132 132 131 136 138 142 139 135 110 60 20 11 10 8 7 5 2 360 357 350 350 351 349 349 345 343 340 340 341 340 342 345 351
144 140 141 145 141 136 137 142 148 152 149 146 149 152 149 145 150 154 153 153 148 143 139 137 147 157 147 120 113 114 96 85 95 103 92 87 96 96 102 106 112 115 118 123 125 127 128 131 135 134 134 134 139 149 159 164 156 157 131 76 60 46 19 4 4 2 0 355 348 345 343 341 345 349 351 350 346 347 347 345 343 342 345 351 357
145 139 136 142 141 136 139 144 145 147 146 145 148 153 153 149 149 148 148 154 154 153 145 141 152 152 145 144 122 109 96 92 96 93 84 88 97 98 103 107 113 119 120 122 122 124 128 129 129 128 130 131 132 134 133 129 101 79 44 29 26 8 355 347 339 340 343 334 332 332 331 331 338 344 348 346 341 342 344 342 341 342 347 353 356
141 137 135 142 142 140 144 150 150 148 148 150 152 154 155 149 146 148 152 157 159 161 152 143 147 144 143 150 137 119 91 94 100 75 75 105 107 92 97 103 109 114 115 117 117 122 126 123 120 117 117 113 107 93 79 62 27 18 351 338 333 328 328 331 323 319 319 317 316 320 322 318 320 332 339 337 334 335 337 337 339 343 348 353 354
136 134 133 139 141 140 144 152 153 149 149 152 152 152 154 149 143 144 150 155 158 159 155 149 149 148 148 153 154 147 142 310 96 76 59 108 118 87 89 101 109 107 110 111 105 104 106 113 128 134 125 114 102 87 84 69 2 330 320 316 308 309 308 307 308 302 299 300 300 301 307 305 305 320 327 327 329 331 334 339 342 345 348 350 352
129 130 135 140 138 138 142 151 155 152 150 151 152 151 150 146 142 141 142 146 149 148 149 152 150 148 146 151 164 167 170 275 268 184 8 56 98 84 96 107 105 101 107 113 105 98 94 96 111 140 143 137 148 168 176 216 255 281 289 296 294 292 294 300 308 306 304 303 297 293 292 292 299 311 318 323 329 334 338 342 346 350 351 354 1
133 132 137 140 133 135 141 148 155 154 154 155 154 152 147 143 140 141 141 142 145 146 151 153 148 145 145 156 173 183 187 215 218 225 323 339 33 73 90 87 84 99 100 102 100 89 80 72 83 122 147 131 127 231 251 258 254 269 278 276 284 285 294 309 317 314 312 308 300 293 288 287 297 304 315 329 336 341 345 348 356 0 1 9 16
138 135 133 136 133 134 139 145 149 149 152 154 155 153 145 138 133 138 141 137 137 138 146 150 140 139 144 157 167 172 177 188 196 230 290 297 355 40 64 59 74 99 85 97 104 47 42 37 21 166 154 132 74 315 272 274 269 278 285 283 293 301 309 318 321 319 317 315 306 294 284 282 292 306 326 338 343 347 350 354 3 6 8 14 12
136 134 130 131 133 134 139 143 141 143 148 151 157 156 147 141 138 141 141 139 142 133 132 139 132 140 160 172 155 160 174 189 193 234 262 269 353 1 29 42 53 40 3 312 259 135 34 358 309 219 164 300 292 304 296 302 302 295 301 310 313 309 317 322 322 323 326 326 319 301 287 285 299 319 330 335 341 344 346 348 349 349 351 353 351
134 133 130 129 134 134 136 137 133 140 148 149 156 158 154 151 148 149 150 155 159 147 137 140 134 155 182 204 303 176 184 182 173 183 231 219 311 307 308 1 18 333 325 313 274 116 48 11 357 174 27 343 295 272 309 324 315 304 315 317 314 307 311 321 325 328 334 336 336 325 310 301 305 315 318 320 325 325 326 327 326 326 325 326 325
136 136 132 128 129 123 121 122 122 136 146 148 155 162 163 159 151 152 157 154 155 156 157 167 164 168 184 202 306 187 179 167 162 169 215 195 222 259 276 292 336 357 9 27 75 100 42 11 10 10 357 355 336 315 321 324 310 297 316 318 313 310 313 321 325 330 338 343 343 335 324 312 303 304 306 307 310 311 310 311 310 310 309 307 307
143 139 132 127 124 118 116 119 126 137 144 148 153 159 162 158 152 153 158 155 158 171 179 191 190 181 185 196 210 186 195 196 174 181 200 144 179 230 259 278 338 23 31 51 63 73 38 3 358 359 4 1 350 349 345 330 321 312 323 327 322 318 319 326 332 339 347 349 345 336 324 314 306 302 302 301 303 303 302 302 302 301 300 299 298
152 144 132 129 127 130 126 126 135 138 138 145 153 160 161 155 152 152 158 165 178 190 191 193 191 182 188 201 201 196 211 221 193 195 216 199 100 168 98 283 320 18 17 46 40 33 25 1 6 16 14 9 8 18 23 15 0 356 354 351 346 341 342 346 351 355 353 350 346 337 326 318 312 308 306 304 302 301 300 300 299 299 296 293 292
160 151 141 139 136 139 126 121 129 126 128 150 165 169 165 159 159 157 158 173 191 192 191 194 190 182 189 199 199 204 207 197 184 190 214 226 213 83 103 207 248 336 1 58 22 23 24 4 18 27 18 14 20 26 31 32 28 30 26 18 13 8 5 2 360 358 354 350 346 339 331 324 317 312 310 307 304 303 301 300 298 296 293 290 287
173 169 163 158 152 145 136 128 132 132 141 164 173 169 167 167 166 164 160 173 189 189 188 190 193 190 191 192 194 210 201 169 179 182 196 216 210 165 164 211 234 307 94 111 29 29 36 28 26 22 16 17 19 22 28 32 36 39 33 25 22 16 9 4 359 356 352 348 343 338 332 326 320 316 313 310 307 304 301 299 297 294 292 290 288
180 184 179 168 166 160 162 161 152 160 164 169 171 167 172 173 167 167 169 180 189 192 191 181 183 187 182 185 193 195 179 159 179 182 159 177 188 188 214 209 210 314 16 95 47 22 30 32 34 20 17 15 12 15 23 30 36 38 31 21 16 10 6 0 356 353 349 345 339 333 329 325 322 318 315 313 309 306 303 301 299 296 295 294 292
178 184 184 170 172 172 174 175 161 162 166 169 170 168 173 172 169 171 169 179 189 195 197 187 183 182 164 158 188 183 176 163 164 172 160 154 169 190 222 241 223 308 346 2 301 319 14 21 18 15 14 9 8 10 16 25 26 25 25 18 9 2 358 355 352 350 345 341 336 331 327 323 321 319 316 314 311 309 307 305 303 300 298 297 295
184 183 186 178 176 177 180 182 171 169 172 169 166 168 173 173 177 175 161 172 189 184 182 179 176 180 173 174 205 203 178 162 153 155 161 165 167 190 224 245 264 303 334 326 299 294 351 0 358 2 0 356 5 8 12 20 20 17 17 14 8 360 356 354 350 347 343 339 335 331 327 324 321 318 316 313 311 309 307 305 304 301 300 298 296
193 186 187 187 180 178 185 187 178 173 178 174 164 165 172 178 187 183 166 174 186 167 155 164 170 178 186 198 209 193 166 157 155 150 151 170 174 178 201 220 236 270 320 317 321 342 341 341 343 352 347 338 352 2 8 16 16 16 13 10 7 0 356 352 347 344 339 336 333 329 326 323 320 317 314 312 310 309 307 305 303 301 300 297 296
194 189 191 194 186 182 187 193 184 174 177 176 167 167 171 180 191 188 180 184 183 169 166 177 183 182 192 215 214 168 147 149 154 158 157 164 175 170 166 198 217 215 252 282 303 309 309 319 329 337 335 329 339 352 2 6 8 9 5 3 359 354 351 347 343 341 336 332 329 325 322 319 316 314 313 311 309 308 306 305 303 302 300 298 296
198 193 195 199 194 189 190 194 193 181 177 174 167 174 178 180 184 184 188 191 181 175 182 191 192 185 196 215 199 148 136 137 138 152 165 164 165 166 165 190 192 175 191 247 286 295 285 286 315 321 320 321 330 346 359 359 358 358 354 349 343 340 340 338 337 334 331 328 324 321 318 316 314 313 311 310 309 307 305 304 302 301 300 298 297
204 198 197 201 198 196 195 193 197 190 181 178 173 178 184 181 179 176 184 188 183 181 187 192 187 167 162 161 147 132 131 134 135 143 157 163 160 102 91 168 172 182 241 284 281 251 249 279 313 310 311 321 336 350 355 352 351 350 346 342 337 336 338 338 337 333 329 325 321 318 316 314 313 312 311 309 308 306 305 304 302 300 299 297 295
208 202 198 203 201 200 202 196 197 194 187 190 189 183 184 182 180 178 178 183 187 190 192 193 184 150 139 137 134 128 125 133 149 146 143 147 138 26 139 167 175 200 244 316 317 246 242 277 285 288 307 330 340 343 343 343 345 344 340 338 338 340 341 339 337 333 327 322 319 317 315 313 312 310 310 309 308 306 305 304 302 300 298 296 295
213 205 198 204 204 202 206 201 200 198 192 195 199 195 190 184 179 180 180 180 186 193 195 195 186 165 155 158 168 165 150 152 151 140 163 201 259 279 191 186 199 214 234 257 274 274 289 288 275 289 317 330 322 323 332 337 340 341 338 335 335 337 337 336 333 328 324 321 320 318 316 314 312 310 309 308 307 306 305 304 302 300 298 297 295
217 212 204 208 207 202 206 207 204 202 197 194 198 201 198 189 180 178 181 179 179 186 190 191 187 179 176 175 178 179 179 203 216 218 253 255 242 255 252 211 212 220 236 238 233 231 263 271 267 280 304 315 311 314 325 331 335 336 334 332 331 333 333 332 330 327 325 325 325 323 320 317 315 313 313 312 312 312 311 310 307 304 301 299 297
218 217 212 215 214 203 205 210 207 204 203 198 197 199 200 197 187 180 181 179 179 184 183 185 186 184 184 177 176 183 183 190 210 218 234 243 236 244 255 231 221 227 241 245 241 229 234 257 259 267 287 297 301 307 315 323 329 329 328 328 327 328 328 328 328 328 329 330 330 330 327 325 323 323 323 323 323 324 323 321 318 315 311 307 303
218 217 215 217 217 209 204 210 211 206 206 204 200 198 199 203 199 190 187 180 179 188 189 185 179 175 184 182 176 183 185 182 195 213 222 230 236 239 245 247 235 234 250 256 244 232 225 238 254 265 272 277 285 295 304 313 321 320 318 318 319 321 323 323 326 329 331 333 335 335 335 336 336 334 332 331 330 330 331 330 327 324 321 318 314
220 217 215 215 217 215 208 208 213 211 208 208 206 201 200 205 205 201 198 191 184 190 198 196 181 168 175 184 182 186 190 188 198 215 223 227 234 235 236 243 239 237 254 269 257 244 229 231 248 271 283 282 286 295 303 309 313 310 307 309 313 317 321 323 327 330 334 339 342 342 341 341 340 339 337 335 333 332 332 331 330 326 323 321 320
222 218 216 213 214 217 213 209 211 212 211 210 209 207 203 204 205 202 203 204 197 193 197 201 195 182 176 184 192 199 205 200 202 215 222 220 223 230 239 245 243 243 252 266 269 260 256 258 258 273 293 298 301 307 313 314 312 309 309 311 314 318 324 329 333 336 341 346 347 345 342 340 339 338 337 334 332 330 329 329 329 325 322 320 318
224 221 220 217 215 216 215 211 208 211 213 211 210 210 206 205 205 202 203 210 209 202 198 201 204 198 190 194 203 208 215 212 207 215 224 222 222 230 246 259 262 262 265 278 283 281 285 293 297 307 315 321 328 332 331 333 331 325 323 321 320 324 333 339 342 342 344 345 345 344 343 341 340 337 335 332 329 328 327 328 327 326 324 321 318
223 221 222 221 219 217 215 212 209 211 214 213 212 212 211 209 207 205 204 209 214 212 207 206 209 208 202 205 211 215 219 223 221 224 234 246 252 246 253 281 293 291 289 292 295 300 310 317 321 331 337 337 340 342 340 341 344 339 336 335 335 340 346 348 347 346 346 345 345 344 342 340 336 332 330 327 327 328 329 330 330 329 328 325 322
223 220 222 223 223 220 216 213 212 212 214 216 215 214 214 212 211 210 208 209 213 216 215 214 215 215 214 213 217 220 227 235 236 233 237 246 255 255 259 276 284 285 289 296 301 306 314 321 325 332 338 336 337 341 339 339 343 345 350 356 355 352 352 350 346 345 346 345 343 342 340 336 331 328 328 330 334 338 338 338 339 340 341 339 336
224 220 221 223 224 223 219 215 213 214 216 217 218 219 217 214 214 214 214 214 214 216 217 218 219 222 225 226 226 227 233 240 242 241 242 243 250 254 255 260 266 271 279 288 296 302 308 313 319 325 330 330 332 337 337 338 342 346 351 356 355 352 351 346 342 341 342 341 340 339 336 333 331 332 339 347 352 351 349 349 350 351 349 344 338
225 221 220 222 224 224 222 218 214 215 217 218 220 223 222 219 217 217 219 220 221 220 219 220 221 226 231 235 239 241 242 244 246 247 247 245 246 249 251 251 256 263 269 277 284 290 294 299 307 318 324 326 330 335 337 338 341 344 347 349 349 347 344 338 336 336 336 336 335 334 334 334 336 345 358 5 4 359 355 353 353 349 341 334 330
223 220 218 220 222 224 224 221 216 215 218 219 220 223 225 224 221 220 221 224 227 228 226 223 223 225 231 237 243 247 248 249 251 253 254 253 250 251 252 250 250 255 258 263 270 276 283 292 304 316 321 324 327 333 336 336 337 340 343 343 341 339 334 331 331 330 329 332 334 334 335 337 344 357 9 11 8 1 354 353 351 343 335 331 327
221 220 218 219 220 223 225 223 219 217 219 221 222 224 226 225 224 223 224 225 228 232 233 231 229 228 232 238 241 245 249 252 254 256 257 259 259 258 256 256 257 257 259 264 272 280 288 296 305 312 316 320 323 330 336 333 330 334 337 335 333 330 327 326 326 325 326 330 334 336 337 342 353 4 9 11 8 2 356 352 346 337 332 330 328
218 218 218 219 220 223 225 224 222 220 220 222 224 226 227 226 225 225 225 227 229 233 236 237 236 235 237 240 242 244 248 252 255 257 258 260 262 264 262 262 264 265 266 272 279 285 290 294 299 305 312 317 318 323 330 327 326 331 329 325 325 324 322 322 323 325 329 332 337 341 343 348 358 4 6 7 6 2 356 349 341 334 333 336 336
215 216 218 219 220 223 225 226 224 222 222 223 225 227 228 228 228 227 227 228 229 233 237 239 240 241 241 243 245 247 250 254 257 258 259 260 261 264 267 268 269 270 271 274 276 279 283 288 295 302 308 312 315 320 323 323 325 326 321 317 318 317 318 320 325 331 333 334 340 347 350 353 359 3 3 5 5 1 354 345 338 337 339 344 344
216 215 218 220 220 222 224 226 226 224 223 224 226 228 229 230 230 230 230 229 230 232 236 239 242 244 245 246 249 250 251 254 258 259 260 260 261 264 267 268 270 270 271 272 273 276 281 286 294 300 303 307 313 317 318 320 320 317 314 313 313 314 316 320 330 337 336 335 341 350 354 354 357 1 2 3 3 358 351 345 341 340 343 348 350
216 214 216 219 221 222 224 225 226 226 226 226 227 229 230 231 231 232 233 232 232 233 236 239 242 244 247 249 251 252 253 256 258 259 260 262 264 266 267 268 269 269 271 273 274 277 281 285 291 297 299 305 314 315 313 315 315 311 311 311 312 316 319 321 330 341 343 338 340 348 354 356 356 360 2 1 359 356 352 350 347 345 347 350 350
217 214 214 218 221 223 224 225 226 227 228 229 230 231 232 233 233 235 236 236 236 237 239 240 243 245 247 250 251 252 255 257 257 257 261 264 266 269 271 272 273 273 273 274 275 278 279 282 288 293 295 302 312 313 310 312 312 309 308 310 313 319 322 324 330 341 346 340 337 344 354 358 356 357 359 358 355 355 356 354 351 351 351 351 350
218 214 213 216 221 223 224 226 227 228 230 231 232 233 234 234 235 237 239 240 241 241 242 243 246 247 249 250 252 254 255 256 254 252 255 257 260 264 268 272 276 277 276 276 276 277 277 279 285 290 293 300 307 309 309 310 307 305 307 312 315 319 322 324 328 337 342 338 336 344 352 356 355 356 357 355 354 357 360 357 356 356 354 351 351
218 216 214 214 219 224 225 226 229 230 231 232 233 235 235 236 236 237 238 240 242 244 245 246 248 249 251 252 253 254 256 256 252 250 250 253 256 259 263 267 270 271 273 275 276 276 276 278 283 288 294 298 300 304 308 304 300 304 309 313 315 317 320 322 327 334 336 333 336 343 348 351 352 354 355 354 355 359 1 1 1 359 354 351 352
218 218 216 213 216 221 226 228 230 233 234 233 233 234 236 236 237 237 238 239 241 244 246 248 249 250 252 253 254 254 256 256 253 250 249 252 255 258 260 263 263 266 270 273 275 277 278 280 284 288 293 294 295 301 304 298 297 304 309 310 314 317 318 320 326 331 330 330 336 341 343 346 348 350 353 354 358 2 3 3 3 1 356 355 355
218 220 218 215 214 217 223 227 230 234 237 237 235 235 236 237 237 238 239 239 240 242 244 246 249 250 251 252 254 256 257 255 252 247 245 247 251 255 258 259 261 265 269 272 275 278 280 282 283 285 289 292 295 298 299 297 299 303 305 308 314 317 316 317 323 326 327 330 335 340 341 342 343 346 352 356 359 4 5 4 3 3 2 360 357
218 220 220 218 215 215 219 224 228 232 237 239 239 238 238 238 238 238 239 240 241 241 242 243 245 248 251 252 254 256 257 257 253 247 244 244 248 252 255 257 259 263 267 272 276 277 279 281 280 281 286 292 294 294 294 296 298 301 301 304 311 314 312 312 318 323 327 330 335 339 339 339 339 343 350 358 1 4 6 3 3 6 8 4 359
216 219 220 220 219 217 217 221 226 230 234 237 239 240 240 239 238 238 238 240 241 241 242 242 243 246 249 252 254 256 257 258 256 252 248 246 247 250 252 256 258 260 265 270 273 275 277 278 279 282 287 289 289 288 288 291 295 296 296 301 310 310 305 306 314 322 328 330 333 336 336 337 339 342 348 358 4 6 5 3 4 8 8 4 2
215 217 219 220 220 219 218 219 222 226 230 234 237 238 239 240 239 239 239 239 240 241 242 242 241 243 246 249 252 255 257 260 260 258 255 253 252 252 253 255 257 259 264 269 272 275 277 278 280 283 285 285 284 282 283 287 290 290 293 302 309 304 297 301 310 319 326 329 328 330 333 337 340 343 348 354 2 9 7 3 5 8 5 2 3
214 216 218 219 219 220 220 220 221 223 226 230 234 236 237 238 239 240 240 239 240 241 242 243 242 241 243 246 248 251 255 259 260 260 258 256 256 256 256 256 256 260 265 269 272 275 277 278 281 281 281 281 280 279 281 283 286 289 296 304 303 294 292 296 304 314 323 325 323 326 333 337 342 351 355 355 358 4 5 4 7 9 5 3 3